| time (UTC) | temp F | wind direction | speed MPH | gust MPH | rain 1hr in | rain 24hr in | rain mn in | humidity % | barometer mb |
| 20260905211614 | 52 | 0.0 | 0.0 | 0.03 | 0.51 | 0.45 | 99 | 1017.6 | |
| 20260905211112 | 52 | 0.0 | 0.0 | 0.03 | 0.51 | 0.45 | 99 | 1017.6 | |
| 20260905210610 | 51 | 0.0 | 0.0 | 0.03 | 0.51 | 0.45 | 99 | 1017.5 | |
| 20260905210109 | 52 | 0.0 | 0.0 | 0.03 | 0.51 | 0.45 | 99 | 1017.1 | |
| 20260905205607 | 52 | 0.0 | 0.0 | 0.03 | 0.58 | 0.45 | 99 | 1016.8 | |
| 20260905205105 | 52 | 0.0 | 0.0 | 0.03 | 0.58 | 0.45 | 99 | 1017.5 | |
| 20260905204603 | 52 | 0.0 | 0.0 | 0.03 | 0.58 | 0.45 | 99 | 1017.1 | |
| 20260905204102 | 52 | 0.0 | 0.0 | 0.03 | 0.58 | 0.45 | 99 | 1017.0 | |
| 20260905203600 | 52 | 0.0 | 0.0 | 0.03 | 0.58 | 0.45 | 99 | 1016.7 | |
| 20260905203058 | 52 | 0.0 | 0.0 | 0.02 | 0.57 | 0.44 | 99 | 1017.0 | |
| 20260905202557 | 52 | 0.0 | 0.0 | 0.01 | 0.56 | 0.43 | 99 | 1016.7 | |
| 20260905202055 | 52 | 0.0 | 0.0 | 0.01 | 0.56 | 0.43 | 99 | 1016.7 | |
| 20260905201553 | 52 | 0.0 | 0.0 | 0.00 | 0.55 | 0.42 | 99 | 1016.9 | |
| 20260905201051 | 52 | 0.0 | 0.0 | 0.00 | 0.55 | 0.42 | 99 | 1016.7 | |
| 20260905200550 | 52 | 0.0 | 0.0 | 0.00 | 0.55 | 0.42 | 99 | 1016.6 | |
| 20260905200048 | 52 | 0.0 | 0.0 | 0.00 | 0.55 | 0.42 | 99 | 1016.5 | |
| 20260905195546 | 52 | 0.0 | 0.0 | 0.00 | 0.56 | 0.42 | 99 | 1016.6 | |
| 20260905195044 | 53 | 0.0 | 0.0 | 0.00 | 0.56 | 0.42 | 99 | 1016.5 | |
| 20260905194542 | 53 | 0.0 | 0.0 | 0.00 | 0.56 | 0.42 | 99 | 1016.4 | |
| 20260905194040 | 53 | 0.0 | 0.0 | 0.00 | 0.56 | 0.42 | 99 | 1016.3 | |
| 20260905193539 | 53 | 0.0 | 0.0 | 0.00 | 0.56 | 0.42 | 99 | 1016.2 | |
| 20260905193037 | 53 | 0.0 | 0.0 | 0.00 | 0.56 | 0.42 | 99 | 1016.2 | |
| 20260905192535 | 53 | 0.0 | 0.0 | 0.00 | 0.56 | 0.42 | 99 | 1016.4 | |
| 20260905192034 | 53 | 0.0 | 0.0 | 0.00 | 0.56 | 0.42 | 99 | 1016.5 | |
| 20260905191532 | 53 | 0.0 | 0.0 | 0.00 | 0.56 | 0.42 | 99 | 1016.5 | |
| 20260905191030 | 53 | 0.0 | 0.0 | 0.00 | 0.56 | 0.42 | 99 | 1016.4 | |
| 20260905190528 | 53 | 0.0 | 0.0 | 0.00 | 0.56 | 0.42 | 99 | 1016.4 | |
| 20260905190026 | 53 | 0.0 | 0.0 | 0.00 | 0.56 | 0.42 | 99 | 1016.3 | |
| 20260905185525 | 54 | 0.0 | 0.0 | 0.00 | 0.56 | 0.42 | 99 | 1016.1 | |
| 20260905185023 | 53 | 0.0 | 0.0 | 0.00 | 0.56 | 0.42 | 99 | 1016.4 | |
| 20260905184522 | 53 | 0.0 | 0.0 | 0.01 | 0.56 | 0.42 | 99 | 1016.1 | |
| 20260905184020 | 53 | 0.0 | 0.0 | 0.01 | 0.56 | 0.42 | 99 | 1016.3 | |
| 20260905183518 | 54 | 0.0 | 0.0 | 0.01 | 0.56 | 0.42 | 99 | 1016.4 | |
| 20260905183016 | 54 | 0.0 | 0.0 | 0.01 | 0.56 | 0.42 | 99 | 1016.2 | |
| 20260905182514 | 54 | 0.0 | 0.0 | 0.01 | 0.56 | 0.42 | 99 | 1016.1 | |
| 20260905182013 | 54 | 0.0 | 0.0 | 0.01 | 0.56 | 0.42 | 99 | 1016.2 | |
| 20260905181511 | 54 | 0.0 | 0.0 | 0.02 | 0.56 | 0.42 | 99 | 1016.2 | |
| 20260905181009 | 55 | 0.0 | 0.0 | 0.02 | 0.56 | 0.42 | 99 | 1016.1 | |
| 20260905180508 | 55 | 0.0 | 0.0 | 0.02 | 0.56 | 0.42 | 99 | 1016.1 | |
| 20260905180006 | 55 | 0.0 | 0.0 | 0.02 | 0.56 | 0.42 | 99 | 1016.1 | |
| 20260905175504 | 55 | 0.0 | 0.0 | 0.04 | 0.67 | 0.42 | 99 | 1016.0 | |
| 20260905175002 | 55 | 0.0 | 0.0 | 0.04 | 0.67 | 0.42 | 99 | 1016.1 | |
| 20260905174500 | 55 | 0.0 | 0.0 | 0.04 | 0.66 | 0.41 | 99 | 1016.3 | |
| 20260905173958 | 55 | 0.0 | 0.0 | 0.04 | 0.66 | 0.41 | 99 | 1016.4 | |
| 20260905173457 | 55 | 0.0 | 0.0 | 0.04 | 0.66 | 0.41 | 99 | 1016.6 | |
| 20260905172955 | 55 | 0.0 | 0.0 | 0.04 | 0.66 | 0.41 | 99 | 1016.5 | |
| 20260905172454 | 55 | 0.0 | 0.0 | 0.04 | 0.66 | 0.41 | 99 | 1016.4 | |
| 20260905171952 | 55 | 0.0 | 0.0 | 0.05 | 0.66 | 0.41 | 99 | 1016.1 | |
| 20260905171450 | 55 | 0.0 | 0.0 | 0.04 | 0.65 | 0.40 | 99 | 1016.4 | |
| 20260905170948 | 55 | 0.0 | 0.0 | 0.04 | 0.65 | 0.40 | 99 | 1016.2 | |
| 20260905170447 | 55 | 0.0 | 0.0 | 0.04 | 0.65 | 0.40 | 99 | 1016.5 | |
| 20260905165945 | 55 | 0.0 | 0.0 | 0.04 | 0.73 | 0.40 | 99 | 1016.3 | |
| 20260905165443 | 55 | 0.0 | 0.0 | 0.04 | 0.73 | 0.40 | 99 | 1016.6 | |
| 20260905164941 | 54 | 0.0 | 0.0 | 0.02 | 0.71 | 0.38 | 99 | 1016.8 | |
| 20260905164439 | 54 | 0.0 | 0.0 | 0.01 | 0.70 | 0.37 | 99 | 1017.0 | |
| 20260905163937 | 55 | 0.0 | 0.0 | 0.02 | 0.70 | 0.37 | 99 | 1016.8 | |
| 20260905163436 | 55 | 0.0 | 0.0 | 0.02 | 0.70 | 0.37 | 99 | 1016.7 | |
| 20260905162933 | 55 | 0.0 | 0.0 | 0.03 | 0.70 | 0.37 | 99 | 1016.5 | |
| 20260905162432 | 55 | 0.0 | 0.0 | 0.03 | 0.70 | 0.37 | 99 | 1016.7 | |
| 20260905161930 | 55 | 0.0 | 0.0 | 0.08 | 0.69 | 0.36 | 99 | 1016.9 | |
| 20260905161428 | 55 | 0.0 | 0.0 | 0.08 | 0.69 | 0.36 | 99 | 1016.9 | |
| 20260905160927 | 55 | 0.0 | 0.0 | 0.08 | 0.69 | 0.36 | 99 | 1016.9 | |
| 20260905160425 | 55 | 0.0 | 0.0 | 0.08 | 0.69 | 0.36 | 99 | 1017.1 | |
| 20260905155923 | 55 | 0.0 | 0.0 | 0.08 | 0.69 | 0.36 | 99 | 1017.1 | |
| 20260905155422 | 55 | 0.0 | 0.0 | 0.08 | 0.69 | 0.36 | 99 | 1017.1 | |
| 20260905154920 | 55 | 0.0 | 0.0 | 0.08 | 0.69 | 0.36 | 99 | 1017.3 | |
| 20260905154418 | 56 | 0.0 | 0.0 | 0.08 | 0.69 | 0.36 | 99 | 1017.2 | |
| 20260905153916 | 56 | 0.0 | 0.0 | 0.08 | 0.69 | 0.36 | 99 | 1017.2 | |
| 20260905153415 | 56 | 0.0 | 0.0 | 0.08 | 0.69 | 0.36 | 99 | 1017.1 | |
| 20260905152913 | 56 | 0.0 | 0.0 | 0.07 | 0.68 | 0.35 | 99 | 1017.1 | |
| 20260905152411 | 55 | 0.0 | 0.0 | 0.07 | 0.68 | 0.35 | 99 | 1017.2 | |
| 20260905151909 | 55 | 0.0 | 0.0 | 0.05 | 0.66 | 0.33 | 99 | 1016.9 | |
| 20260905151407 | 55 | 0.0 | 0.0 | 0.01 | 0.62 | 0.30 | 99 | 1017.1 | |
| 20260905150905 | 55 | 0.0 | 0.0 | 0.00 | 0.61 | 0.29 | 99 | 1017.2 | |
| 20260905150403 | 55 | 0.0 | 0.0 | 0.00 | 0.61 | 0.29 | 99 | 1017.1 | |
| 20260905145901 | 55 | 0.0 | 0.0 | 0.00 | 0.61 | 0.29 | 99 | 1017.2 | |
| 20260905145359 | 56 | 0.0 | 0.0 | 0.00 | 0.61 | 0.29 | 99 | 1017.4 | |
| 20260905144857 | 55 | 0.0 | 0.0 | 0.00 | 0.61 | 0.29 | 99 | 1017.4 | |
| 20260905144355 | 56 | 0.0 | 0.0 | 0.00 | 0.61 | 0.29 | 99 | 1017.2 | |
| 20260905143853 | 56 | 0.0 | 0.0 | 0.00 | 0.61 | 0.29 | 99 | 1017.3 | |
| 20260905143351 | 56 | 0.0 | 0.0 | 0.00 | 0.61 | 0.29 | 99 | 1017.4 | |
| 20260905142849 | 56 | 0.0 | 0.0 | 0.00 | 0.61 | 0.29 | 99 | 1017.6 | |
| 20260905142347 | 57 | 0.0 | 0.0 | 0.00 | 0.61 | 0.29 | 99 | 1017.6 | |
| 20260905141844 | 57 | 0.0 | 0.0 | 0.00 | 0.61 | 0.29 | 99 | 1017.7 | |
| 20260905141342 | 57 | 0.0 | 0.0 | 0.00 | 0.61 | 0.29 | 99 | 1017.7 | |
| 20260905140840 | 57 | 0.0 | 0.0 | 0.00 | 0.61 | 0.29 | 99 | 1017.6 | |
| 20260905140338 | 57 | 0.0 | 0.0 | 0.00 | 0.61 | 0.29 | 99 | 1017.7 | |
| 20260905135835 | 57 | 0.0 | 0.0 | 0.00 | 0.61 | 0.29 | 97 | 1017.7 | |
| 20260905135332 | 58 | 0.0 | 0.0 | 0.00 | 0.61 | 0.29 | 96 | 1017.6 | |
| 20260905134830 | 59 | 0.0 | 0.0 | 0.00 | 0.61 | 0.29 | 98 | 1017.5 | |
| 20260905134327 | 58 | 0.0 | 0.0 | 0.00 | 0.61 | 0.29 | 99 | 1017.5 | |
| 20260905133825 | 58 | 0.0 | 0.0 | 0.04 | 0.61 | 0.29 | 99 | 1017.7 | |
| 20260905133323 | 58 | 0.0 | 0.0 | 0.04 | 0.61 | 0.29 | 99 | 1017.8 | |
| 20260905132820 | 58 | 0.0 | 0.0 | 0.09 | 0.61 | 0.29 | 99 | 1018.0 | |
| 20260905132318 | 57 | 0.0 | 0.0 | 0.09 | 0.61 | 0.29 | 99 | 1017.9 | |
| 20260905131815 | 57 | 0.0 | 0.0 | 0.09 | 0.61 | 0.29 | 99 | 1017.9 | |
| 20260905131312 | 57 | 0.0 | 0.0 | 0.09 | 0.61 | 0.29 | 99 | 1018.0 | |
| 20260905130810 | 57 | 0.0 | 0.0 | 0.09 | 0.61 | 0.29 | 99 | 1018.0 | |
| 20260905130307 | 57 | 0.0 | 0.0 | 0.09 | 0.61 | 0.29 | 99 | 1018.0 | |
| 20260905125804 | 56 | 0.0 | 0.0 | 0.09 | 0.61 | 0.29 | 99 | 1017.9 | |
| 20260905125305 | 56 | 0.0 | 0.0 | 0.09 | 0.61 | 0.29 | 99 | 1017.8 | |
| 20260905124800 | 56 | 0.0 | 0.0 | 0.09 | 0.61 | 0.29 | 99 | 1017.9 | |
| 20260905124257 | 55 | 0.0 | 0.0 | 0.09 | 0.61 | 0.29 | 99 | 1017.8 | |
| 20260905123755 | 55 | 0.0 | 0.0 | 0.09 | 0.61 | 0.29 | 99 | 1017.6 | |
| 20260905123252 | 55 | 0.0 | 0.0 | 0.07 | 0.59 | 0.27 | 99 | 1017.8 | |
| 20260905122749 | 55 | 0.0 | 0.0 | 0.04 | 0.56 | 0.24 | 99 | 1017.8 | |
| 20260905122247 | 55 | 0.0 | 0.0 | 0.00 | 0.52 | 0.20 | 99 | 1018.3 | |
| 20260905121744 | 55 | 0.0 | 0.0 | 0.00 | 0.52 | 0.20 | 99 | 1017.7 | |
| 20260905121241 | 56 | 0.0 | 0.0 | 0.00 | 0.52 | 0.20 | 99 | 1017.7 | |
| 20260905120739 | 56 | 0.0 | 0.0 | 0.00 | 0.52 | 0.20 | 99 | 1017.5 | |
| 20260905120236 | 56 | 0.0 | 0.0 | 0.00 | 0.52 | 0.20 | 99 | 1017.7 | |
| 20260905115733 | 55 | 0.0 | 0.0 | 0.00 | 0.52 | 0.20 | 99 | 1017.3 | |
| 20260905115230 | 55 | 0.0 | 0.0 | 0.00 | 0.52 | 0.20 | 99 | 1017.5 | |
| 20260905114728 | 55 | 0.0 | 0.0 | 0.00 | 0.52 | 0.20 | 99 | 1017.8 | |
| 20260905114226 | 55 | 0.0 | 0.0 | 0.00 | 0.52 | 0.20 | 99 | 1017.4 | |
| 20260905113723 | 55 | 0.0 | 0.0 | 0.00 | 0.52 | 0.20 | 99 | 1017.7 | |
| 20260905113221 | 54 | 0.0 | 0.0 | 0.00 | 0.52 | 0.20 | 99 | 1018.0 | |
| 20260905112719 | 55 | 0.0 | 0.0 | 0.16 | 0.52 | 0.20 | 99 | 1018.1 | |
| 20260905112217 | 55 | 0.0 | 0.0 | 0.16 | 0.52 | 0.20 | 99 | 1018.0 | |
| 20260905111715 | 55 | 0.0 | 0.0 | 0.19 | 0.52 | 0.20 | 99 | 1018.0 | |
| 20260905111212 | 55 | 0.0 | 0.0 | 0.19 | 0.52 | 0.20 | 99 | 1017.8 | |
| 20260905110710 | 55 | 0.0 | 0.0 | 0.19 | 0.52 | 0.20 | 99 | 1017.7 | |
| 20260905110209 | 55 | 0.0 | 0.0 | 0.19 | 0.52 | 0.20 | 99 | 1017.5 | |
| 20260905105707 | 54 | 0.0 | 0.0 | 0.19 | 0.52 | 0.20 | 99 | 1017.4 | |
| 20260905105206 | 55 | 0.0 | 0.0 | 0.19 | 0.52 | 0.20 | 99 | 1017.7 | |
| 20260905104704 | 55 | 0.0 | 0.0 | 0.19 | 0.52 | 0.20 | 99 | 1017.5 | |
| 20260905104202 | 55 | 0.0 | 0.0 | 0.19 | 0.52 | 0.20 | 99 | 1017.9 | |
| 20260905103701 | 54 | 0.0 | 0.0 | 0.20 | 0.52 | 0.20 | 99 | 1017.9 | |
| 20260905103159 | 54 | 0.0 | 0.0 | 0.20 | 0.52 | 0.20 | 99 | 1017.7 | |
| 20260905102657 | 54 | 0.0 | 0.0 | 0.19 | 0.51 | 0.19 | 99 | 1016.9 | |
| 20260905102156 | 54 | 0.0 | 0.0 | 0.10 | 0.42 | 0.10 | 99 | 1017.9 | |
| 20260905101654 | 55 | 0.0 | 0.0 | 0.01 | 0.33 | 0.01 | 99 | 1018.7 | |
| 20260905101152 | 55 | 0.0 | 0.0 | 0.01 | 0.33 | 0.01 | 99 | 1017.9 | |
| 20260905100651 | 54 | 0.0 | 0.0 | 0.01 | 0.33 | 0.01 | 99 | 1017.7 | |
| 20260905100149 | 54 | 0.0 | 0.0 | 0.01 | 0.33 | 0.01 | 99 | 1017.6 | |
| 20260905095648 | 54 | 0.0 | 0.0 | 0.01 | 0.33 | 0.01 | 99 | 1016.6 | |
| 20260905095146 | 54 | 0.0 | 0.0 | 0.01 | 0.33 | 0.01 | 99 | 1016.5 | |
| 20260905094644 | 54 | 0.0 | 0.0 | 0.01 | 0.33 | 0.01 | 99 | 1016.5 | |
| 20260905094142 | 54 | 0.0 | 0.0 | 0.01 | 0.33 | 0.01 | 99 | 1016.5 | |
| 20260905093640 | 54 | 0.0 | 0.0 | 0.01 | 0.33 | 0.01 | 99 | 1016.5 | |
| 20260905093139 | 54 | 0.0 | 0.0 | 0.00 | 0.32 | 0.00 | 99 | 1016.8 | |
| 20260905092637 | 55 | 0.0 | 0.0 | 0.00 | 0.32 | 0.00 | 99 | 1016.6 | |
| 20260905092136 | 54 | 0.0 | 0.0 | 0.00 | 0.32 | 0.00 | 99 | 1016.2 | |
| 20260905091634 | 54 | 0.0 | 0.0 | 0.00 | 0.32 | 0.00 | 99 | 1016.0 | |
| 20260905091132 | 54 | 0.0 | 0.0 | 0.00 | 0.32 | 0.00 | 99 | 1015.8 | |
| 20260905090631 | 54 | 0.0 | 0.0 | 0.00 | 0.32 | 0.00 | 99 | 1015.2 | |
| 20260905090129 | 54 | 0.0 | 0.0 | 0.00 | 0.32 | 0.00 | 99 | 1015.1 | |
| 20260905085628 | 54 | 0.0 | 0.0 | 0.00 | 0.32 | 0.00 | 99 | 1015.3 | |
| 20260905085126 | 54 | 0.0 | 0.0 | 0.00 | 0.32 | 0.00 | 99 | 1015.5 | |
| 20260905084624 | 54 | 0.0 | 0.0 | 0.00 | 0.32 | 0.00 | 99 | 1015.7 | |
| 20260905084123 | 54 | 0.0 | 0.0 | 0.00 | 0.32 | 0.00 | 99 | 1015.5 | |
| 20260905083621 | 54 | 0.0 | 0.0 | 0.00 | 0.32 | 0.00 | 99 | 1015.5 | |
| 20260905083120 | 54 | 0.0 | 0.0 | 0.00 | 0.32 | 0.00 | 99 | 1015.9 | |
| 20260905082618 | 54 | 0.0 | 0.0 | 0.00 | 0.32 | 0.00 | 99 | 1015.9 | |
| 20260905082117 | 54 | 0.0 | 0.0 | 0.00 | 0.32 | 0.00 | 99 | 1015.4 | |
| 20260905081615 | 54 | 0.0 | 0.0 | 0.00 | 0.32 | 0.00 | 99 | 1015.7 | |
| 20260905081114 | 54 | 0.0 | 0.0 | 0.00 | 0.32 | 0.00 | 99 | 1015.7 | |
| 20260905080612 | 54 | 0.0 | 0.0 | 0.00 | 0.32 | 0.00 | 99 | 1016.1 | |
| 20260905080110 | 54 | 0.0 | 0.0 | 0.00 | 0.32 | 0.00 | 99 | 1015.9 | |
| 20260905075608 | 54 | 0.0 | 0.0 | 0.00 | 0.32 | 0.00 | 99 | 1016.1 | |
| 20260905075107 | 55 | 0.0 | 0.0 | 0.00 | 0.32 | 0.00 | 99 | 1015.9 | |
| 20260905074605 | 55 | 0.0 | 0.0 | 0.00 | 0.32 | 0.00 | 99 | 1016.0 | |
| 20260905074103 | 54 | 0.0 | 0.0 | 0.00 | 0.32 | 0.00 | 99 | 1016.0 | |
| 20260905073602 | 54 | 0.0 | 0.0 | 0.00 | 0.32 | 0.00 | 99 | 1015.7 | |
| 20260905073100 | 54 | 0.0 | 0.0 | 0.00 | 0.32 | 0.00 | 99 | 1015.6 | |
| 20260905072558 | 54 | 0.0 | 0.0 | 0.00 | 0.32 | 0.00 | 99 | 1015.5 | |
| 20260905072057 | 54 | 0.0 | 0.0 | 0.00 | 0.32 | 0.00 | 99 | 1015.4 | |
| 20260905071555 | 54 | 0.0 | 0.0 | 0.00 | 0.32 | 0.00 | 99 | 1015.5 | |
| 20260905071053 | 54 | 0.0 | 0.0 | 0.00 | 0.32 | 0.00 | 99 | 1015.8 | |
| 20260905070551 | 54 | 0.0 | 0.0 | 0.00 | 0.32 | 0.00 | 99 | 1015.9 | |
| 20260905070049 | 54 | 0.0 | 0.0 | 0.00 | 0.32 | 0.00 | 99 | 1015.9 | |
| 20260905065548 | 54 | 0.0 | 0.0 | 0.00 | 0.32 | 0.00 | 99 | 1015.8 | |
| 20260905065046 | 55 | 0.0 | 0.0 | 0.00 | 0.32 | 0.00 | 99 | 1015.8 | |
| 20260905064545 | 54 | 0.0 | 0.0 | 0.00 | 0.32 | 0.00 | 99 | 1016.0 | |
| 20260905064043 | 54 | 0.0 | 0.0 | 0.00 | 0.32 | 0.00 | 99 | 1016.0 | |
| 20260905063542 | 54 | 0.0 | 0.0 | 0.00 | 0.32 | 0.00 | 99 | 1016.3 | |
| 20260905063040 | 54 | 0.0 | 0.0 | 0.00 | 0.32 | 0.00 | 99 | 1016.4 | |
| 20260905062539 | 55 | 0.0 | 0.0 | 0.00 | 0.32 | 0.00 | 99 | 1016.4 | |
| 20260905062037 | 55 | 0.0 | 0.0 | 0.00 | 0.32 | 0.00 | 99 | 1016.2 | |
| 20260905061536 | 55 | 0.0 | 0.0 | 0.00 | 0.32 | 0.00 | 99 | 1016.3 | |
| 20260905061034 | 54 | 0.0 | 0.0 | 0.00 | 0.32 | 0.00 | 99 | 1016.2 | |
| 20260905060533 | 54 | 0.0 | 0.0 | 0.00 | 0.32 | 0.00 | 99 | 1016.2 | |
| 20260905060031 | 54 | 0.0 | 0.0 | 0.00 | 0.32 | 0.00 | 99 | 1016.2 | |
| 20260905055530 | 55 | 0.0 | 0.0 | 0.00 | 0.32 | 0.00 | 99 | 1016.2 | |
| 20260905055028 | 55 | 0.0 | 0.0 | 0.00 | 0.32 | 0.00 | 99 | 1016.1 | |
| 20260905054527 | 55 | 0.0 | 0.0 | 0.00 | 0.32 | 0.00 | 99 | 1016.2 | |
| 20260905054025 | 55 | 0.0 | 0.0 | 0.00 | 0.32 | 0.00 | 99 | 1016.5 | |
| 20260905053524 | 54 | 0.0 | 0.0 | 0.00 | 0.32 | 0.00 | 99 | 1016.6 | |
| 20260905053022 | 55 | 0.0 | 0.0 | 0.00 | 0.32 | 0.00 | 99 | 1016.7 | |
| 20260905052520 | 55 | 0.0 | 0.0 | 0.00 | 0.32 | 0.00 | 99 | 1016.7 | |
| 20260905052019 | 55 | 0.0 | 0.0 | 0.00 | 0.32 | 0.00 | 99 | 1016.4 | |
| 20260905051517 | 55 | 0.0 | 0.0 | 0.00 | 0.32 | 0.00 | 99 | 1016.3 | |
| 20260905051016 | 55 | 0.0 | 0.0 | 0.00 | 0.32 | 0.00 | 99 | 1016.6 | |
| 20260905050514 | 55 | 0.0 | 0.0 | 0.00 | 0.32 | 0.00 | 99 | 1016.8 | |
| 20260905050012 | 55 | 0.0 | 0.0 | 0.00 | 0.32 | 0.00 | 99 | 1016.8 | |
| 20260905045511 | 55 | 0.0 | 0.0 | 0.00 | 0.32 | 0.00 | 99 | 1016.5 | |
| 20260905045009 | 55 | 0.0 | 0.0 | 0.00 | 0.32 | 0.00 | 99 | 1016.5 | |
| 20260905044507 | 55 | 0.0 | 0.0 | 0.00 | 0.32 | 0.00 | 99 | 1016.5 | |
| 20260905044006 | 55 | 0.0 | 0.0 | 0.00 | 0.32 | 0.00 | 99 | 1016.5 | |
| 20260905043504 | 55 | 0.0 | 0.0 | 0.00 | 0.32 | 0.00 | 99 | 1016.7 | |
| 20260905043002 | 55 | 0.0 | 0.0 | 0.00 | 0.32 | 0.00 | 99 | 1016.6 | |
| 20260905042501 | 55 | 0.0 | 0.0 | 0.00 | 0.32 | 0.00 | 99 | 1016.5 | |
| 20260905041959 | 55 | 0.0 | 0.0 | 0.00 | 0.32 | 0.00 | 99 | 1016.5 | |
| 20260905041458 | 55 | 0.0 | 0.0 | 0.00 | 0.32 | 0.00 | 99 | 1016.7 | |
| 20260905040956 | 55 | 0.0 | 0.0 | 0.00 | 0.32 | 0.00 | 99 | 1016.8 | |
| 20260905040454 | 55 | 0.0 | 0.0 | 0.00 | 0.32 | 0.00 | 99 | 1016.8 | |
| 20260905035952 | 55 | 0.0 | 0.0 | 0.00 | 0.32 | 0.00 | 99 | 1017.1 | |
| 20260905035451 | 55 | 0.0 | 0.0 | 0.00 | 0.32 | 0.00 | 99 | 1017.2 | |
| 20260905034949 | 55 | 0.0 | 0.0 | 0.00 | 0.32 | 0.00 | 99 | 1017.1 | |
| 20260905034448 | 55 | 0.0 | 0.0 | 0.00 | 0.32 | 0.00 | 99 | 1017.2 | |
| 20260905033946 | 55 | 0.0 | 0.0 | 0.00 | 0.32 | 0.00 | 99 | 1017.2 | |
| 20260905033444 | 55 | 0.0 | 0.0 | 0.00 | 0.32 | 0.00 | 99 | 1017.2 | |
| 20260905032943 | 55 | 0.0 | 0.0 | 0.00 | 0.32 | 0.00 | 99 | 1017.3 | |
| 20260905032441 | 55 | 0.0 | 0.0 | 0.00 | 0.32 | 0.00 | 99 | 1017.3 | |
| 20260905031940 | 55 | 0.0 | 0.0 | 0.01 | 0.32 | 0.00 | 99 | 1017.5 | |
| 20260905031438 | 55 | 0.0 | 0.0 | 0.01 | 0.32 | 0.00 | 99 | 1017.8 | |
| 20260905030937 | 55 | 0.0 | 0.0 | 0.04 | 0.32 | 0.00 | 99 | 1017.7 | |
| 20260905030435 | 55 | 0.0 | 0.0 | 0.04 | 0.32 | 0.00 | 99 | 1018.0 | |
| 20260905025933 | 55 | 0.0 | 0.0 | 0.04 | 0.32 | 0.32 | 99 | 1018.3 | |
| 20260905025432 | 55 | 0.0 | 0.0 | 0.04 | 0.32 | 0.32 | 99 | 1018.4 | |
| 20260905024930 | 55 | 0.0 | 0.0 | 0.05 | 0.32 | 0.32 | 99 | 1018.2 | |
| 20260905024428 | 55 | 0.0 | 0.0 | 0.05 | 0.32 | 0.32 | 99 | 1018.1 | |
| 20260905023927 | 55 | 0.0 | 0.0 | 0.05 | 0.32 | 0.32 | 99 | 1017.9 | |
| 20260905023425 | 55 | 0.0 | 0.0 | 0.05 | 0.32 | 0.32 | 99 | 1018.1 | |
| 20260905022923 | 55 | 0.0 | 0.0 | 0.05 | 0.32 | 0.32 | 99 | 1018.5 | |
| 20260905022421 | 55 | 0.0 | 0.0 | 0.05 | 0.32 | 0.32 | 99 | 1018.5 | |
| 20260905021919 | 56 | 0.0 | 0.0 | 0.05 | 0.32 | 0.32 | 99 | 1018.4 | |
| 20260905021417 | 56 | 0.0 | 0.0 | 0.05 | 0.32 | 0.32 | 99 | 1018.1 | |
| 20260905020916 | 56 | 0.0 | 0.0 | 0.03 | 0.31 | 0.31 | 99 | 1018.3 | |
| 20260905020414 | 56 | 0.0 | 0.0 | 0.02 | 0.30 | 0.30 | 99 | 1018.8 | |
| 20260905015912 | 56 | 0.0 | 0.0 | 0.01 | 0.29 | 0.29 | 99 | 1018.3 | |
| 20260905015410 | 56 | 0.0 | 0.0 | 0.01 | 0.29 | 0.29 | 99 | 1018.2 | |
| 20260905014909 | 57 | 0.0 | 0.0 | 0.00 | 0.28 | 0.28 | 99 | 1018.4 | |
| 20260905014406 | 56 | 0.0 | 0.0 | 0.00 | 0.28 | 0.28 | 99 | 1018.2 | |
| 20260905013904 | 56 | 0.0 | 0.0 | 0.00 | 0.28 | 0.28 | 99 | 1017.9 | |
| 20260905013403 | 56 | 0.0 | 0.0 | 0.00 | 0.28 | 0.28 | 99 | 1018.0 | |
| 20260905012900 | 56 | 0.0 | 0.0 | 0.00 | 0.28 | 0.28 | 99 | 1018.0 | |
| 20260905012359 | 56 | 0.0 | 0.0 | 0.00 | 0.28 | 0.28 | 99 | 1017.8 | |
| 20260905011856 | 56 | 0.0 | 0.0 | 0.00 | 0.28 | 0.28 | 99 | 1017.6 | |
| 20260905011354 | 56 | 0.0 | 0.0 | 0.00 | 0.28 | 0.28 | 99 | 1017.5 | |
| 20260905010853 | 56 | 0.0 | 0.0 | 0.00 | 0.28 | 0.28 | 99 | 1017.6 | |
| 20260905010351 | 56 | 0.0 | 0.0 | 0.00 | 0.28 | 0.28 | 99 | 1017.7 | |
| 20260905005849 | 56 | 0.0 | 0.0 | 0.00 | 0.28 | 0.28 | 99 | 1017.9 | |
| 20260905005347 | 56 | 0.0 | 0.0 | 0.00 | 0.28 | 0.28 | 99 | 1017.7 | |
| 20260905004845 | 56 | 0.0 | 0.0 | 0.00 | 0.28 | 0.28 | 99 | 1017.7 | |
| 20260905004343 | 56 | 0.0 | 0.0 | 0.00 | 0.28 | 0.28 | 99 | 1017.9 | |
| 20260905003842 | 57 | 0.0 | 0.0 | 0.00 | 0.28 | 0.28 | 99 | 1018.0 | |
| 20260905003340 | 57 | 0.0 | 0.0 | 0.00 | 0.28 | 0.28 | 99 | 1017.8 | |
| 20260905002838 | 57 | 0.0 | 0.0 | 0.00 | 0.28 | 0.28 | 99 | 1017.7 | |
| 20260905002336 | 57 | 0.0 | 0.0 | 0.00 | 0.28 | 0.28 | 99 | 1017.6 | |
| 20260905001834 | 57 | 0.0 | 0.0 | 0.00 | 0.28 | 0.28 | 99 | 1017.5 | |
| 20260905001332 | 57 | 0.0 | 0.0 | 0.00 | 0.28 | 0.28 | 99 | 1017.4 | |
| 20260905000830 | 57 | 0.0 | 0.0 | 0.00 | 0.28 | 0.28 | 99 | 1017.2 | |
| 20260905000328 | 57 | 0.0 | 0.0 | 0.00 | 0.28 | 0.28 | 99 | 1017.3 | |
| 20260904235825 | 57 | 0.0 | 0.0 | 0.00 | 0.28 | 0.28 | 99 | 1017.2 | |
| 20260904235323 | 58 | 0.0 | 0.0 | 0.00 | 0.28 | 0.28 | 99 | 1017.2 | |
| 20260904234821 | 58 | 0.0 | 0.0 | 0.00 | 0.28 | 0.28 | 99 | 1017.1 | |
| 20260904234319 | 58 | 0.0 | 0.0 | 0.00 | 0.28 | 0.28 | 99 | 1017.3 | |
| 20260904233817 | 58 | 0.0 | 0.0 | 0.00 | 0.28 | 0.28 | 99 | 1017.1 | |
| 20260904233315 | 58 | 0.0 | 0.0 | 0.00 | 0.28 | 0.28 | 99 | 1017.1 | |
| 20260904232813 | 58 | 0.0 | 0.0 | 0.00 | 0.28 | 0.28 | 99 | 1017.0 | |
| 20260904232311 | 59 | 0.0 | 0.0 | 0.00 | 0.28 | 0.28 | 99 | 1017.0 | |
| 20260904231809 | 59 | 0.0 | 0.0 | 0.00 | 0.28 | 0.28 | 99 | 1016.9 | |
| 20260904231308 | 60 | 0.0 | 0.0 | 0.00 | 0.28 | 0.28 | 99 | 1016.9 | |
| 20260904230806 | 60 | 0.0 | 0.0 | 0.00 | 0.28 | 0.28 | 99 | 1016.9 | |
| 20260904230305 | 60 | 0.0 | 0.0 | 0.00 | 0.28 | 0.28 | 99 | 1016.8 | |
| 20260904225803 | 60 | 0.0 | 0.0 | 0.00 | 0.28 | 0.28 | 99 | 1016.8 | |
| 20260904225301 | 60 | 0.0 | 0.0 | 0.00 | 0.28 | 0.28 | 99 | 1016.8 | |
| 20260904224759 | 60 | 0.0 | 0.0 | 0.00 | 0.28 | 0.28 | 99 | 1016.6 | |
| 20260904224256 | 60 | 0.0 | 0.0 | 0.00 | 0.28 | 0.28 | 99 | 1016.3 | |
| 20260904223754 | 60 | 0.0 | 0.0 | 0.01 | 0.28 | 0.28 | 99 | 1016.2 | |
| 20260904223252 | 60 | 0.0 | 0.0 | 0.01 | 0.28 | 0.28 | 99 | 1016.2 | |
| 20260904222750 | 60 | 0.0 | 0.0 | 0.01 | 0.28 | 0.28 | 99 | 1016.5 | |
| 20260904222248 | 60 | 0.0 | 0.0 | 0.01 | 0.28 | 0.28 | 99 | 1016.6 | |
| 20260904221746 | 60 | 0.0 | 0.0 | 0.01 | 0.28 | 0.28 | 99 | 1016.5 | |
| 20260904221244 | 60 | 0.0 | 0.0 | 0.01 | 0.28 | 0.28 | 99 | 1016.5 | |
| 20260904220742 | 61 | 0.0 | 0.0 | 0.01 | 0.28 | 0.28 | 99 | 1016.6 | |
| 20260904220240 | 61 | 0.0 | 0.0 | 0.01 | 0.28 | 0.28 | 99 | 1016.5 | |
| 20260904215738 | 61 | 0.0 | 0.0 | 0.01 | 0.28 | 0.28 | 99 | 1016.8 | |
| 20260904215236 | 61 | 0.0 | 0.0 | 0.01 | 0.28 | 0.28 | 99 | 1016.9 | |
| 20260904214734 | 61 | 0.0 | 0.0 | 0.02 | 0.28 | 0.28 | 99 | 1017.1 | |
| 20260904214232 | 61 | 0.0 | 0.0 | 0.02 | 0.28 | 0.28 | 99 | 1017.4 | |
| 20260904213730 | 61 | 0.0 | 0.0 | 0.04 | 0.28 | 0.28 | 99 | 1017.3 | |
| 20260904213228 | 61 | 0.0 | 0.0 | 0.04 | 0.28 | 0.28 | 99 | 1017.4 | |
| 20260904212726 | 61 | 0.0 | 0.0 | 0.06 | 0.27 | 0.27 | 99 | 1017.5 | |
| 20260904212225 | 61 | 0.0 | 0.0 | 0.06 | 0.27 | 0.27 | 99 | 1017.5 |